Location: Augsburg
(48.3836°N, 10.8929°E)
Time: 20:11:23
(UTC+01:00)

ISS - Pass Details

Date: 13 January 2018
Orbit: 401 x 407 km, 51.6° (Epoch: 17 January)

Event Time Altitude Azimuth Distance (km) Brightness Sun altitude
Exits shadow 07:07:11 10° 263° (W) 1,458 -1.5 -9.2°
Maximum altitude 07:09:18 16° 222° (SW) 1,143 -1.7 -8.9°
Drops below altitude 10° 07:11:25 10° 182° (S) 1,459 -0.7 -8.6°
Sets 07:14:01 0° 160° (SSE) 2,315 0.7 -8.2°
